Location: Bun Machan
(52.1403°N, 7.3744°W)
Time: 01:54:19
(UTC+00:00)

Cosmos 1607 - Pass Details

Date: 14 July 2020
Orbit: 913 x 989 km, 65.0° (Epoch: 04 August)

Event Time Altitude Azimuth Distance (km) Brightness Sun altitude
Exits shadow 00:20:04 23° 195° (SSW) 1,896 5.0 -16.1°
Maximum altitude 00:23:57 59° 124° (SE) 1,094 4.1 -16.2°
Drops below altitude 10° 00:30:09 10° 47° (NE) 2,713 6.9 -16.2°
Sets 00:32:46 0° 44° (NE) 3,674 7.7 -16.2°
